www.pogodaiklimat.ru

Погода и климат >> Архив погоды >> Тунис >> Nabeul


ПОГОДА в Nabeul

  • Прогноз погоды в Nabeul
  • Монитор погоды в Nabeul
  • Климат города

АРХИВ ПОГОДЫ в Nabeul

Время (UTC), дата Ветер
(напр.,м/с)
 
Видим.   Явления Облачность Т
(С)
Тd
(С)
f
(%)
Тe
(С)
Тes
(С)
Комфортность P
(гПа)
Po
(гПа)
Тmin
(С)
Tmax
(С)
R
(мм)
R24
(мм)
S
(см)
03 12.01 З 6-10
{11}
н/о н/о +9.8 +2.4 60 +7 +7 1011.7 1002.3
06 12.01 З 8-14
{14}
н/о н/о +9.6 +4.6 71 +6 +6 1010.7 1001.3 +9.6 +12.4
09 12.01 СЗ 10-16
{16}
н/о н/о +10.0 +6.7 80 +6 +6 1011.0 1001.6 0.4
12 12.01 З 7-12
{18}
н/о н/о +11.2 +8.6 84 +8 +8 1010.3 1000.9 2
15 12.01 З 5-8
{13}
н/о н/о +10.1 +9.3 95 +7 +7 1010.6 1001.2 3
18 12.01 СЗ 7-13
{13}
н/о н/о +10.3 +9.7 96 +6 +6 1012.6 1003.2 +11.4 5
21 12.01 СЗ 7-13
{17}
н/о н/о +10.1 +9.3 95 +6 +6 1015.5 1006.0 4
00 13.01 СЗ 5-9
{17}
н/о н/о +10.0 +9.5 97 +7 +7 1017.0 1007.5 11
03 13.01 СЗ 8-13
{14}
н/о н/о +9.5 +8.7 95 +5 +5 1017.3 1007.8 2
06 13.01 СЗ 5-9
{14}
н/о н/о +9.5 +9.0 97 +6 +6 1019.0 1009.5 +9.3 +10.5 4
09 13.01 СЗ 5-9
{10}
н/о н/о +10.5 +9.3 92 +8 +8 1020.8 1011.3 0.4
12 13.01 СЗ 7-14
{14}
н/о н/о +14.3 +8.5 68 +12 +12 1020.4 1011.0
15 13.01 СЗ 4-9
{12}
н/о н/о +15.0 +8.3 64 +14 +14 1020.1 1010.8
18 13.01 С 2-4
{12}
н/о н/о +10.6 +7.3 80 +9 +9 1021.7 1012.2 +15.7
21 13.01 СЗ 4-5
{5}
н/о н/о +8.6 +6.7 88 +6 +6 1021.8 1012.2
00 14.01 СЗ 2-3
{5}
н/о н/о +7.5 +5.8 89 +5 +5 1021.7 1012.1
03 14.01 З 1-2
{3}
н/о н/о +8.7 +5.8 82 +9 +9 1020.5 1010.9
06 14.01 ЮЗ 1-2
{3}
н/о н/о +9.5 +7.1 85 +9 +9 1020.0 1010.5 +7.2 +10.5
09 14.01 ЮЗ 2-4
{5}
н/о н/о +10.6 +8.7 88 +9 +9 1021.1 1011.6
12 14.01 Ю 2-4
{6}
н/о н/о +14.1 +6.0 58 +14 +14 1020.0 1010.6
15 14.01 Ю 3-3
{5}
н/о н/о +14.3 +7.8 65 +14 +14 1019.7 1010.3
18 14.01 штиль 0-1
{5}
н/о н/о +9.9 +7.7 86 +9 +9 1021.3 1011.8 +15.5
21 14.01 СЗ 1-2
{3}
н/о н/о +9.6 +7.2 85 +10 +10 1022.3 1012.8
00 15.01 СЗ 3-3
{3}
н/о н/о +9.8 +6.2 78 +8 +8 1022.7 1013.2
03 15.01 СЗ 3-4
{4}
н/о н/о +9.9 +4.9 71 +8 +8 1022.1 1012.6
06 15.01 С 2-2
{4}
н/о н/о +10.4 +5.2 70 +10 +10 1022.6 1013.1 +8.9 +11.5
09 15.01 С 1-1
{3}
н/о н/о +13.1 +9.2 77 +14 +14 1024.2 1014.8
12 15.01 ЮВ 3-4
{4}
н/о н/о +16.0 +8.5 61 +16 +16 1023.6 1014.3
15 15.01 ЮВ 2-3
{4}
н/о н/о +14.3 +6.6 60 +14 +14 1023.0 1013.6
18 15.01 СЗ 2-3
{4}
н/о н/о +10.2 +7.4 83 +9 +9 1024.6 1015.1 +16.4
21 15.01 СЗ 3-4
{5}
н/о н/о +9.2 +6.3 82 +7 +7 1026.0 1016.4
00 16.01 С 4-5
{5}
н/о н/о +9.0 +2.8 65 +6 +6 1026.4 1016.8
03 16.01 СЗ 4-6
{7}
н/о н/о +8.7 +6.8 88 +6 +6 1026.2 1016.6
06 16.01 СЗ 4-5
{7}
н/о н/о +8.5 +6.8 89 +5 +5 1025.9 1016.3 +7.9 +10.0
09 16.01 ЮЗ 1-3
{5}
н/о н/о +13.7 +9.6 76 +14 +14 1027.4 1018.0
12 16.01 З 5-9
{9}
н/о н/о +16.8 +8.8 59 +16 +16 1025.5 1016.2
15 16.01 З 6-10
{12}
н/о н/о +17.1 +8.3 56 +16 +16 1024.3 1015.0
18 16.01 СЗ 4-6
{12}
н/о н/о +13.1 +8.6 74 +12 +12 1024.3 1014.9 +18.0
21 16.01 СЗ 4-5
{7}
н/о н/о +10.1 +7.7 85 +8 +8 1024.4 1014.9
00 17.01 З 3-3
{7}
н/о н/о +8.7 +7.2 90 +6 +6 1022.4 1012.8
03 17.01 З 2-4
{5}
н/о н/о +10.5 +6.5 76 +9 +9 1020.3 1010.8
06 17.01 СЗ 1-2
{5}
н/о н/о +10.7 +4.0 63 +11 +11 1019.2 1009.7 +8.3 +13.3
09 17.01 З 3-6
{7}
н/о н/о +16.5 +2.2 38 +16 +16 1019.0 1009.7
12 17.01 СЗ 7-14
{16}
н/о н/о +19.7 +3.8 35 +20 +20 1016.9 1007.7
15 17.01 СЗ 7-15
{20}
н/о н/о +17.9 +10.3 61 +17 +17 1017.1 1007.9
18 17.01 СЗ 6-12
{12}
н/о н/о +14.5 +7.8 64 +13 +13 1019.3 1010.0
21 17.01 СЗ 8-17
{17}
н/о н/о +13.1 +6.5 64 +10 +10 1020.7 1011.3
00 18.01 СЗ 5-11
{17}
н/о н/о +12.0 +5.6 65 +10 +10 1021.7 1012.2
03 18.01 СЗ 3-6
{12}
н/о н/о +11.5 +6.0 69 +10 +10 1022.4 1012.9
06 18.01 СЗ 3-7
{12}
н/о н/о +10.1 +5.9 75 +8 +8 1023.5 1014.0 +9.6 +14.4
09 18.01 СЗ 3-6
{7}
н/о н/о +13.4 +6.5 63 +13 +13 1025.7 1016.3
12 18.01 С 5-9
{11}
н/о н/о +15.8 +5.7 51 +15 +15 1025.0 1015.6
15 18.01 С 5-9
{11}
н/о н/о +16.4 +6.2 51 +16 +16 1023.8 1014.5
18 18.01 С 2-3
{11}
н/о н/о +11.5 +7.2 75 +10 +10 1023.7 1014.2 +16.8
21 18.01 З 1-2
{4}
н/о н/о +9.3 +6.9 85 +10 +10 1023.5 1013.9
00 19.01 ЮЗ 4-8
{8}
н/о н/о +9.9 +7.3 84 +7 +7 1021.9 1012.4

 

Местоположение метеостанции Nabeul (Тунис): широта 36.47 долгота 10.70 высота над уровнем моря 78 м.

В архиве по умолчанию представлена погода в Nabeul за последнюю неделю. Архивные данные за месяц целиком и за предыдущие месяцы, начиная с января 2011 года, Вы можете получить, выбрав интересующий диапазон дат из раскрывающегося списка и нажав кнопку "Ввод!".

Внимание! Время в таблицах - всемирное. Для получения местного времени необходимо прибавить поправку, которая в Nabeul равна 1 ч.

Смотрите также архив погоды в соседних городах и на ближайших метеорологических станциях:

Погода в Enfidha Hammamet Airport (Тунис) (51 км)
Погода в Kelibia (Тунис) (54 км)
Погода в Zaghouan Magrane (Тунис) (56 км)
Погода в Tunis (Тунис) (58 км)
Погода в Monastir (Тунис) (89 км)
Погода в Kairouan (Тунис) (104 км)
Погода в Mahdia (Тунис) (113 км)
Погода в Bizerte (Тунис) (118 км)
Погода в Pantelleria (Италия) (120 км)
Погода в Siliana (Тунис) (127 км)

Пояснения к столбцам:

Ветер - указаны скорость ветра в м/с - средняя за 10 мин, порывы в срок и между сроками (в фигурных скобках) и направление, откуда дует ветер: С - северный, СВ - северо-восточный, В - восточный, ЮВ - юго-восточный, Ю - южный, ЮЗ - юго-западный, З - западный, СЗ - северо-западный.
Видимость - горизонтальная дальность видимости в метрах или километрах. При видимости от 1 до 10 км при отсутствии осадков обычно наблюдается дымка, при ухудшении видимости до 1 км и менее - туман. В сухую погоду видимость может ухудшаться дымом, пылью или мглою.
Явления - указаны атмосферные явления, наблюдавшиеся в срок или в последний час перед сроком; фигурными скобками обозначены явления, наблюдавшиеся между сроками (за 1-3 часа до срока); квадратными скобками обозначены град или гололедные отложения с указанием их диаметра в мм.
Облачность - указаны через наклонную черту общая и нижняя облачность в баллах и высота нижней границы облаков в метрах; квадратными скобками обозначены формы облаков: Ci - перистые, Cs - перисто-слоистые, Cc - перисто-кучевые, Ac - высококучевые, As - высокослоистые, Sc - слоисто-кучевые, Ns - слоисто-дождевые, Cu - кучевые, Cb - кучево-дождевые. Подробнее классификацию облаков см. в Атласе облаков (PDF).
T - Температура воздуха - температура, измеренная на высоте 2 м над землей.
Td - Температура точки росы - температура, при понижении до которой содержащийся в воздухе водяной пар достигнет насыщения.
f - Относительная влажность воздуха - влажноcть воздуха, измеренная на высоте 2 м над землей.
Te - Эффективная температура - температура, которую ощущает одетый по сезону человек в тени. Характеристика душности погоды. При расчете учитывается влияние влажности воздуха и скорости ветра на теплоощущения человека.
Tes - Эффективная температура на солнце - температура, которую ощущает человек, с поправкой на солнечный нагрев. Характеристика знойности погоды. Зависит от высоты солнца над горизонтом, облачности и скорости ветра. Ночью, в пасмурную погоду, а также при ветре 12 м/с и более поправка равна нулю.
P - Атмосферное давление - приведенное к уровню моря атмосферное давление.
Po - Атмосферное давление - измеренное на уровне метеостанции атмосферное давление.
Tmin - Минимальная температура - минимум температуры воздуха на высоте 2 м над землей.
Tmax - Максимальная температура - максимум температуры воздуха на высоте 2 м над землей.
R - Количество осадков - Количество выпавших осадков за период времени, мм. При наведении курсора мыши на число - период времени, за который выпало указанное количество осадков.
R24 - Количество осадков - Количество выпавших осадков за 24 часа, мм.
S - Снежный покров - Высота снежного покрова, см. При наведении курсора мыши на число - состояние снежного покрова и степень покрытия местности в баллах.